CCA1736 ZGSZ-ZSHC

Flight info

Callsign CCA1736
Flight time N/A
Altitude 35100
Route IDUMA9XD IDUMA W41 DOPKU G471 PLT A599 ELNEX ELN91A
Aircraft A320/M-SDE3FGHIRWY/LB1

Departure

Time 2026-04-30 13:17
Airport Shenzhen Bao'an International Airport (ZGSZ)

Arrival

Time N/A
Airport Hangzhou Xiaoshan International Airport (ZSHC)
Time Latitude Longitude Altitude Speed Heading
2026-04-30 12:45 22.63322 113.80779 16 ft 0 kts 333°
2026-04-30 13:01 22.63318 113.80782 16 ft 2 kts 333°
2026-04-30 13:01 22.63303 113.80790 17 ft 2 kts 333°
2026-04-30 13:01 22.63288 113.80798 15 ft 2 kts 333°
2026-04-30 13:02 22.63275 113.80809 17 ft 2 kts 346°
2026-04-30 13:02 22.63259 113.80808 15 ft 1 kts 51°
2026-04-30 13:02 22.63259 113.80807 15 ft 0 kts 51°
2026-04-30 13:05 22.63259 113.80808 15 ft 1 kts 51°
2026-04-30 13:05 22.63281 113.80847 15 ft 11 kts 64°
2026-04-30 13:05 22.63311 113.80941 17 ft 15 kts 71°
2026-04-30 13:06 22.63485 113.80983 15 ft 19 kts 331°
2026-04-30 13:06 22.63609 113.80913 15 ft 21 kts 333°
2026-04-30 13:06 22.63735 113.80843 16 ft 21 kts 331°
2026-04-30 13:06 22.63862 113.80774 15 ft 15 kts 333°
2026-04-30 13:07 22.63914 113.80691 15 ft 15 kts 254°
2026-04-30 13:07 22.63864 113.80584 15 ft 16 kts 243°
2026-04-30 13:07 22.63811 113.80470 15 ft 17 kts 242°
2026-04-30 13:07 22.63755 113.80354 15 ft 18 kts 244°
2026-04-30 13:09 22.63705 113.80242 15 ft 19 kts 243°
2026-04-30 13:09 22.63643 113.80108 15 ft 20 kts 244°
2026-04-30 13:09 22.63577 113.79979 15 ft 20 kts 239°
2026-04-30 13:09 22.63544 113.79860 15 ft 9 kts 306°
2026-04-30 13:10 22.63598 113.79825 15 ft 10 kts 335°
2026-04-30 13:10 22.63666 113.79789 15 ft 14 kts 333°
2026-04-30 13:10 22.63763 113.79735 15 ft 17 kts 333°
2026-04-30 13:10 22.63871 113.79674 15 ft 19 kts 333°
2026-04-30 13:11 22.63997 113.79605 15 ft 21 kts 333°
2026-04-30 13:11 22.64138 113.79528 17 ft 24 kts 332°
2026-04-30 13:11 22.64290 113.79442 15 ft 26 kts 332°
2026-04-30 13:11 22.64453 113.79356 17 ft 26 kts 332°
2026-04-30 13:12 22.64486 113.79295 15 ft 7 kts 246°
2026-04-30 13:12 22.64483 113.79242 15 ft 7 kts 291°
2026-04-30 13:12 22.64527 113.79210 15 ft 8 kts 334°
2026-04-30 13:13 22.64656 113.79138 15 ft 16 kts 332°
2026-04-30 13:13 22.64765 113.79077 15 ft 19 kts 333°
2026-04-30 13:13 22.65029 113.78933 16 ft 23 kts 332°
2026-04-30 13:14 22.65175 113.78855 16 ft 23 kts 335°
2026-04-30 13:14 22.65312 113.78780 16 ft 19 kts 333°
2026-04-30 13:14 22.65493 113.78660 16 ft 13 kts 283°
2026-04-30 13:15 22.65476 113.78606 17 ft 1 kts 243°
2026-04-30 13:15 22.65434 113.78521 16 ft 5 kts 235°
2026-04-30 13:15 22.65397 113.78515 16 ft 6 kts 156°
2026-04-30 13:16 22.65349 113.78541 16 ft 13 kts 153°
2026-04-30 13:16 22.65073 113.78695 16 ft 79 kts 153°
2026-04-30 13:16 22.64402 113.79067 17 ft 136 kts 153°
2026-04-30 13:17 22.62353 113.80205 676 ft 175 kts 151°
2026-04-30 13:17 22.61172 113.80587 1242 ft 183 kts 180°
2026-04-30 13:17 22.58944 113.79926 1775 ft 218 kts 200°
2026-04-30 13:18 22.56953 113.79052 2321 ft 243 kts 200°
2026-04-30 13:18 22.53754 113.77714 3889 ft 249 kts 200°
2026-04-30 13:18 22.52114 113.77076 4685 ft 252 kts 200°
2026-04-30 13:19 22.50474 113.76371 5421 ft 254 kts 212°
2026-04-30 13:19 22.49142 113.75137 6212 ft 253 kts 234°
2026-04-30 13:19 22.48341 113.73460 6964 ft 252 kts 256°
2026-04-30 13:19 22.48174 113.71578 7708 ft 253 kts 272°
2026-04-30 13:20 22.48243 113.69676 8458 ft 254 kts 272°
2026-04-30 13:20 22.48637 113.67822 9172 ft 258 kts 297°
2026-04-30 13:20 22.49881 113.66412 9802 ft 271 kts 327°
2026-04-30 13:20 22.51767 113.65854 10117 ft 295 kts 354°
2026-04-30 13:21 22.53894 113.65833 10339 ft 318 kts 358°
2026-04-30 13:21 22.56182 113.65938 10476 ft 341 kts
2026-04-30 13:21 22.56955 113.65987 10580 ft 345 kts
2026-04-30 13:23 22.74869 113.76404 15303 ft 388 kts 47°
2026-04-30 13:24 22.78411 113.80903 16289 ft 395 kts 47°
2026-04-30 13:24 22.81992 113.85451 17263 ft 402 kts 47°
2026-04-30 13:25 22.85653 113.90091 18277 ft 407 kts 47°
2026-04-30 13:25 22.89361 113.94800 19098 ft 413 kts 47°
2026-04-30 13:26 22.95040 114.01989 20258 ft 423 kts 47°
2026-04-30 13:26 22.98247 114.06035 20886 ft 428 kts 47°
2026-04-30 13:27 23.02858 114.11766 21732 ft 433 kts 41°
2026-04-30 13:28 23.10984 114.15076 22797 ft 420 kts 352°
2026-04-30 13:28 23.16341 114.13066 23484 ft 409 kts 321°
2026-04-30 13:28 23.18573 114.11154 23802 ft 409 kts 317°
2026-04-30 13:29 23.23054 114.07222 24424 ft 413 kts 317°
2026-04-30 13:29 23.26912 114.04113 24913 ft 421 kts 327°
2026-04-30 13:30 23.36524 114.01684 25838 ft 440 kts 354°
2026-04-30 13:31 23.42658 114.01424 26441 ft 443 kts 354°
2026-04-30 13:31 23.51806 114.03267 27294 ft 460 kts 24°
2026-04-30 13:32 23.57121 114.07233 27861 ft 467 kts 35°
2026-04-30 13:32 23.62284 114.11581 28418 ft 471 kts 35°
2026-04-30 13:33 23.67487 114.15971 29005 ft 474 kts 34°
2026-04-30 13:33 23.72721 114.20378 29531 ft 476 kts 34°
2026-04-30 13:34 23.75347 114.22595 29790 ft 478 kts 35°
2026-04-30 13:34 23.83247 114.29255 30455 ft 482 kts 34°
2026-04-30 13:35 23.85909 114.31498 30663 ft 484 kts 34°
2026-04-30 13:35 23.91246 114.36009 31179 ft 485 kts 34°
2026-04-30 13:36 23.96569 114.40520 31735 ft 484 kts 34°
2026-04-30 13:36 23.99238 114.42781 31989 ft 484 kts 34°
2026-04-30 13:36 24.04561 114.47293 32532 ft 484 kts 34°
2026-04-30 13:37 24.07229 114.49558 32810 ft 484 kts 34°
2026-04-30 13:37 24.12512 114.54049 33345 ft 483 kts 34°
2026-04-30 13:38 24.17818 114.58566 33967 ft 483 kts 34°
2026-04-30 13:38 24.20466 114.60824 34254 ft 482 kts 34°
2026-04-30 13:38 24.25756 114.65327 34747 ft 481 kts 34°